Location: Campillo
(40.8621°N, 4.2488°W)
Time: 03:18:41
(UTC+00:00)

USA 245 - Pass Details

Date: 01 October 2021
Orbit: 268 x 1011 km, 97.9° (Epoch: 25 October)

Event Time Altitude Azimuth Distance (km) Brightness Sun altitude
Exits shadow 20:14:34 11° 26° (NNE) 2,244 6.3 -26.1°
Drops below altitude 10° 20:15:03 10° 22° (NNE) 2,367 6.5 -26.2°
Sets 20:18:29 0° 3° (N) 3,450 7.6 -26.8°
